DW2147 Weather Reports


Display with metric or nautical units.
time (UTC)temp
F
wind
direction
speed
MPH
gust
MPH
rain 1hr
in
rain 24hr
in
rain mn
in
humidity
%
barometer
mb
20260906001451 72 211 2.0 3.0 0.00 0.00 0.00 77 1013.8
20260906000955 72 0 2.0 5.0 0.00 0.00 0.00 77 1013.9
20260906000444 72 0 2.0 5.0 0.00 0.00 0.00 76 1013.9
20260905235945 73 0 3.0 5.0 0.00 0.00 0.00 76 1013.9
20260905235720 73 0 3.0 5.0 0.00 0.00 0.00 76 1013.8
20260905234945 73 0 3.0 5.0 0.00 0.00 0.00 75 1013.9
20260905234444 74 0 4.0 6.0 0.00 0.00 0.00 75 1013.8
20260905233942 74 0 3.0 8.0 0.00 0.00 0.00 74 1013.9
20260905233442 75 0 3.0 8.0 0.00 0.00 0.00 73 1013.9
20260905233438 76 0 1.0 6.0 0.00 0.00 0.00 72 1013.7
20260905232438 76 309 1.0 3.0 0.00 0.00 0.00 72 1013.7
20260905231939 76 311 1.0 3.0 0.00 0.00 0.00 71 1013.6
20260905231441 77 0 1.0 3.0 0.00 0.00 0.00 71 1013.7
20260905230925 77 0 2.0 7.0 0.00 0.00 0.00 70 1013.5
20260905230653 78 284 2.0 7.0 0.00 0.00 0.00 68 1013.7
20260905225922 78 350 1.0 3.0 0.00 0.00 0.00 67 1013.6
20260905225423 78 0 0.0 2.0 0.00 0.00 0.00 67 1013.6
20260905224934 78 13 1.0 2.0 0.00 0.00 0.00 66 1013.5
20260905224426 79 0 1.0 3.0 0.00 0.00 0.00 65 1013.5
20260905223923 79 0 0.0 3.0 0.00 0.00 0.00 64 1013.4
20260905223437 79 0 0.0 0.0 0.00 0.00 0.00 64 1013.3
20260905222921 79 14 0.0 2.0 0.00 0.00 0.00 64 1013.3
20260905222418 79 0 1.0 3.0 0.00 0.00 0.00 64 1013.1
20260905222148 79 0 1.0 3.0 0.00 0.00 0.00 63 1013.2
20260905221703 79 16 2.0 4.0 0.00 0.00 0.00 64 1013.1
20260905220919 78 0 2.0 4.0 0.00 0.00 0.00 65 1013.0
20260905220417 78 0 1.0 3.0 0.00 0.00 0.00 65 1012.8
20260905215919 78 0 2.0 4.0 0.00 0.01 0.00 65 1012.8
20260905215427 78 13 2.0 4.0 0.00 0.01 0.00 64 1012.8
20260905214916 78 0 1.0 3.0 0.00 0.01 0.00 66 1012.7
20260905214418 78 0 1.0 4.0 0.00 0.01 0.00 66 1012.8
20260905213920 78 0 1.0 4.0 0.00 0.01 0.00 66 1012.7
20260905213421 78 9 1.0 3.0 0.00 0.01 0.00 66 1012.6
20260905212912 79 0 1.0 4.0 0.00 0.01 0.00 65 1012.6
20260905212414 79 18 1.0 4.0 0.00 0.01 0.00 64 1012.7
20260905211912 79 15 2.0 5.0 0.00 0.01 0.00 64 1012.6
20260905211409 79 0 2.0 5.0 0.00 0.01 0.00 63 1012.6
20260905210909 79 11 1.0 5.0 0.00 0.01 0.00 63 1012.5
20260905210408 79 10 1.0 5.0 0.00 0.01 0.00 64 1012.5
20260905205909 79 0 3.0 6.0 0.00 0.01 0.00 64 1012.7
20260905205405 79 349 2.0 6.0 0.00 0.01 0.00 63 1012.7
20260905204928 78 346 2.0 4.0 0.00 0.01 0.00 66 1012.7
20260905204917 79 26 2.0 4.0 0.00 0.01 0.00 66 1012.7
20260905203903 78 0 2.0 6.0 0.00 0.01 0.00 65 1012.7
20260905203402 79 0 1.0 6.0 0.00 0.01 0.00 65 1012.9
20260905202856 79 17 1.0 4.0 0.00 0.01 0.00 66 1012.8
20260905202406 79 18 2.0 8.0 0.00 0.01 0.00 65 1012.9
20260905202400 79 17 2.0 4.0 0.00 0.01 0.00 65 1012.9
20260905201358 79 23 3.0 8.0 0.00 0.01 0.00 65 1013.0
20260905200858 80 0 3.0 5.0 0.00 0.01 0.00 64 1013.0
20260905200400 80 336 3.0 8.0 0.00 0.01 0.00 62 1013.0
20260905195855 80 0 3.0 8.0 0.00 0.01 0.00 61 1013.1
20260905195358 81 24 2.0 6.0 0.00 0.01 0.00 59 1013.2
20260905194852 82 0 2.0 8.0 0.00 0.01 0.00 58 1013.2
20260905194356 82 54 3.0 8.0 0.00 0.01 0.00 60 1013.1
20260905193851 82 0 3.0 6.0 0.00 0.01 0.00 60 1013.2
20260905193350 82 0 3.0 8.0 0.00 0.01 0.00 62 1013.4
20260905192851 82 0 2.0 8.0 0.00 0.01 0.00 62 1013.3
20260905192632 81 0 2.0 6.0 0.00 0.01 0.00 65 1013.4
20260905191849 81 0 2.0 6.0 0.00 0.01 0.00 64 1013.4
20260905191626 80 0 2.0 6.0 0.00 0.01 0.00 64 1013.4
20260905190853 80 255 2.0 6.0 0.00 0.01 0.00 66 1013.4
20260905190344 79 26 2.0 5.0 0.00 0.01 0.00 67 1013.5
20260905185839 79 0 2.0 5.0 0.00 0.01 0.00 68 1013.7
20260905185337 78 224 2.0 8.0 0.00 0.01 0.00 67 1013.7
20260905184838 78 0 2.0 8.0 0.00 0.01 0.00 67 1013.8
20260905184347 78 0 3.0 6.0 0.00 0.01 0.00 67 1013.8
20260905183842 78 343 3.0 8.0 0.00 0.01 0.00 66 1013.7
20260905183343 79 0 3.0 8.0 0.00 0.01 0.00 67 1013.9
20260905182839 78 261 2.0 6.0 0.00 0.01 0.00 67 1013.9
20260905182334 78 0 2.0 6.0 0.00 0.01 0.00 66 1013.9
20260905181835 79 26 3.0 9.0 0.00 0.01 0.00 66 1013.9
20260905181333 79 0 3.0 9.0 0.00 0.01 0.00 64 1013.9
20260905180835 79 0 2.0 8.0 0.00 0.01 0.00 62 1014.0
20260905180332 79 0 2.0 5.0 0.00 0.01 0.00 62 1014.0
20260905175826 79 0 2.0 5.0 0.00 0.01 0.00 63 1013.9
20260905175327 79 322 2.0 4.0 0.00 0.01 0.00 64 1014.1
20260905174830 79 0 3.0 8.0 0.00 0.01 0.00 63 1014.1
20260905174327 79 0 2.0 8.0 0.00 0.01 0.00 63 1014.0
20260905174059 79 0 2.0 6.0 0.00 0.01 0.00 64 1014.2
20260905173326 79 337 2.0 6.0 0.00 0.01 0.00 63 1014.2
20260905172825 79 0 1.0 3.0 0.00 0.01 0.00 65 1014.2
20260905172323 79 0 1.0 4.0 0.00 0.01 0.00 66 1014.2
20260905171823 78 15 1.0 4.0 0.00 0.01 0.00 65 1014.3
20260905171322 78 16 2.0 5.0 0.00 0.01 0.00 65 1014.3
20260905170821 78 19 1.0 5.0 0.00 0.01 0.00 65 1014.3
20260905170318 78 304 0.0 2.0 0.00 0.01 0.00 65 1014.4
20260905165811 78 303 0.0 4.0 0.00 0.01 0.00 67 1014.5
20260905165313 78 0 1.0 4.0 0.00 0.01 0.00 67 1014.5
20260905164814 78 0 2.0 8.0 0.00 0.01 0.00 68 1014.6
20260905164307 77 0 2.0 8.0 0.00 0.02 0.00 69 1014.6
20260905164044 77 0 2.0 8.0 0.00 0.09 0.00 70 1014.5
20260905163808 77 318 2.0 8.0 0.00 0.03 0.00 70 1014.5
20260905162809 76 0 1.0 5.0 0.00 0.12 0.00 72 1014.5
20260905162306 76 0 2.0 6.0 0.00 0.12 0.00 72 1014.5
20260905161801 75 0 3.0 6.0 0.00 0.12 0.00 73 1014.6
20260905161256 75 0 2.0 5.0 0.00 0.12 0.00 73 1014.6
20260905160756 75 20 1.0 4.0 0.00 0.12 0.00 75 1014.8
20260905160257 75 0 0.0 3.0 0.00 0.12 0.00 75 1014.8
20260905155755 75 0 0.0 2.0 0.00 0.12 0.00 76 1014.9
20260905155256 74 0 0.0 2.0 0.00 0.12 0.00 76 1014.9
20260905154757 74 0 1.0 3.0 0.00 0.12 0.00 76 1014.8
20260905154251 74 0 1.0 3.0 0.00 0.12 0.00 77 1014.8
20260905153753 74 0 0.0 3.0 0.00 0.12 0.00 77 1014.8
20260905153252 74 0 0.0 0.0 0.00 0.12 0.00 77 1014.8
20260905152753 74 0 0.0 0.0 0.00 0.12 0.00 77 1014.9
20260905152254 73 0 0.0 2.0 0.00 0.12 0.00 78 1014.9
20260905151755 73 0 1.0 3.0 0.00 0.12 0.00 78 1015.0
20260905151250 73 0 2.0 3.0 0.00 0.12 0.00 78 1015.0
20260905150749 73 0 2.0 3.0 0.00 0.12 0.00 78 1015.0
20260905150247 73 0 1.0 3.0 0.00 0.12 0.00 78 1015.1
20260905145747 72 0 0.0 3.0 0.00 0.12 0.00 78 1015.1
20260905145253 72 0 0.0 0.0 0.00 0.12 0.00 78 1015.0
20260905145249 72 0 0.0 0.0 0.00 0.12 0.00 78 1015.1
20260905144243 72 0 0.0 0.0 0.00 0.12 0.00 78 1015.0
20260905144014 72 0 0.0 0.0 0.00 0.12 0.00 78 1014.9
20260905143244 72 0 0.0 0.0 0.00 0.12 0.00 78 1014.9
20260905142743 72 0 0.0 0.0 0.00 0.12 0.00 79 1014.8
20260905142244 72 0 0.0 0.0 0.00 0.12 0.00 78 1014.8
20260905141745 72 0 0.0 2.0 0.00 0.12 0.00 79 1014.8
20260905141243 72 312 1.0 4.0 0.00 0.12 0.00 78 1014.8
20260905140740 72 0 1.0 4.0 0.00 0.12 0.00 78 1014.9
20260905140241 72 0 0.0 3.0 0.00 0.12 0.00 79 1014.9
20260905135740 72 0 1.0 3.0 0.00 0.12 0.00 79 1014.9
20260905135241 72 0 1.0 3.0 0.00 0.12 0.00 79 1014.9
20260905134738 72 0 0.0 3.0 0.00 0.12 0.00 79 1014.8
20260905134238 72 272 0.0 0.0 0.00 0.12 0.00 78 1014.8
20260905133734 72 0 0.0 1.0 0.00 0.12 0.00 78 1014.8
20260905133234 72 0 0.0 1.0 0.00 0.12 0.00 78 1014.8
20260905133006 72 0 0.0 1.0 0.00 0.12 0.00 78 1014.8
20260905132234 72 0 0.0 1.0 0.00 0.12 0.00 78 1014.8
20260905132005 72 271 1.0 2.0 0.00 0.12 0.00 78 1014.8
20260905131232 72 0 1.0 2.0 0.00 0.12 0.00 79 1014.8
20260905130728 72 0 0.0 2.0 0.00 0.12 0.00 78 1014.8
20260905130227 72 0 0.0 1.0 0.00 0.12 0.00 78 1014.9
20260905125726 72 0 0.0 3.0 0.00 0.12 0.00 78 1014.9
20260905125227 72 0 0.0 3.0 0.00 0.12 0.00 78 1014.9
20260905124724 72 0 0.0 2.0 0.00 0.12 0.00 78 1014.9
20260905124222 72 0 0.0 0.0 0.00 0.12 0.00 78 1014.9
20260905123721 72 0 0.0 2.0 0.00 0.12 0.00 78 1014.8
20260905123218 72 0 0.0 2.0 0.00 0.12 0.00 78 1014.9
20260905122715 72 0 0.0 3.0 0.00 0.12 0.00 78 1014.9
20260905122213 71 0 0.0 3.0 0.00 0.12 0.00 78 1015.0
20260905121713 71 0 0.0 0.0 0.00 0.12 0.00 78 1014.9
20260905121444 71 0 0.0 0.0 0.00 0.12 0.00 78 1014.8
20260905120712 71 0 0.0 0.0 0.00 0.12 0.00 78 1014.9
20260905120441 71 240 0.0 0.0 0.00 0.12 0.00 79 1014.8
20260905115711 71 0 0.0 0.0 0.00 0.12 0.00 79 1014.6
20260905115210 71 0 0.0 0.0 0.00 0.12 0.00 79 1014.5
20260905114939 71 244 0.0 0.0 0.00 0.12 0.00 79 1014.2
20260905114830 71 0 0.0 0.0 0.00 0.12 0.00 79 1014.1
20260905113702 71 0 0.0 0.0 0.00 0.12 0.00 79 1013.9
20260905113201 71 236 0.0 0.0 0.00 0.12 0.00 79 1013.8
20260905112935 71 236 0.0 0.0 0.00 0.12 0.00 79 1014.1
20260905112433 71 236 0.0 0.0 0.00 0.12 0.00 79 1014.0
20260905111932 71 236 0.0 0.0 0.00 0.12 0.00 79 1014.1
20260905111434 71 0 0.0 2.0 0.00 0.12 0.00 79 1014.1
20260905110700 71 0 1.0 2.0 0.00 0.12 0.00 79 1014.2
20260905110430 71 0 0.0 2.0 0.00 0.12 0.00 79 1014.1
20260905105659 71 0 0.0 0.0 0.00 0.12 0.00 78 1014.0
20260905105428 71 0 0.0 2.0 0.00 0.12 0.00 78 1014.2
20260905104656 71 0 0.0 2.0 0.00 0.12 0.00 78 1014.0
20260905104427 71 0 0.0 2.0 0.00 0.12 0.00 78 1013.9
20260905103920 71 0 0.0 3.0 0.00 0.12 0.00 78 1014.0
20260905103147 71 0 1.0 3.0 0.00 0.12 0.00 78 1013.9
20260905102646 71 0 1.0 2.0 0.00 0.12 0.00 78 1013.6
20260905102144 71 0 1.0 4.0 0.00 0.12 0.00 78 1013.7
20260905101915 71 0 2.0 4.0 0.00 0.12 0.00 79 1013.7
20260905101137 71 0 1.0 4.0 0.00 0.12 0.00 79 1013.8
20260905100636 71 0 1.0 2.0 0.00 0.12 0.00 79 1013.8
20260905100133 71 0 1.0 6.0 0.00 0.12 0.00 79 1013.7
20260905095633 71 0 1.0 6.0 0.00 0.12 0.00 79 1013.8
20260905095131 71 0 1.0 3.0 0.00 0.13 0.00 79 1013.8
20260905094628 71 0 2.0 4.0 0.00 0.13 0.00 78 1013.8
20260905094128 71 0 2.0 4.0 0.00 0.14 0.00 78 1013.7
20260905093626 71 0 1.0 3.0 0.00 0.15 0.00 78 1013.7
20260905093125 71 0 1.0 3.0 0.00 0.15 0.00 78 1013.7
20260905092858 71 0 1.0 3.0 0.00 0.16 0.00 78 1013.7
20260905092400 71 0 0.0 3.0 0.00 0.16 0.00 78 1013.6
20260905091624 71 0 0.0 0.0 0.00 0.16 0.00 78 1013.6
20260905091122 71 0 0.0 1.0 0.00 0.16 0.00 78 1013.6
20260905090622 71 0 0.0 1.0 0.00 0.16 0.00 78 1013.6
20260905090353 71 0 1.0 2.0 0.00 0.16 0.00 78 1013.6
20260905085620 71 0 1.0 2.0 0.00 0.17 0.00 78 1013.5
20260905085120 71 0 1.0 2.0 0.00 0.19 0.00 78 1013.6
20260905084847 71 0 0.0 0.0 0.00 0.22 0.00 78 1013.5
20260905084347 71 0 0.0 0.0 0.00 0.30 0.00 78 1013.6
20260905083615 71 0 0.0 0.0 0.00 0.32 0.00 78 1013.8
20260905083111 71 0 0.0 0.0 0.00 0.34 0.00 78 1013.7
20260905082610 71 0 0.0 0.0 0.00 0.36 0.00 78 1013.8
20260905082340 71 0 0.0 2.0 0.00 0.43 0.00 78 1013.7
20260905081603 71 0 1.0 4.0 0.00 0.47 0.00 78 1013.6
20260905081103 71 0 1.0 4.0 0.00 0.47 0.00 78 1013.7
20260905080606 71 0 0.0 4.0 0.00 0.47 0.00 78 1013.7
20260905075604 71 0 0.0 0.0 0.00 0.49 0.00 78 1013.9
20260905075104 71 0 0.0 0.0 0.00 0.49 0.00 78 1014.1
20260905074602 71 0 0.0 0.0 0.00 0.49 0.00 78 1014.0
20260905074102 71 0 0.0 0.0 0.00 0.50 0.00 78 1014.1
20260905073602 71 0 0.0 0.0 0.00 0.51 0.00 78 1014.1
20260905073059 71 0 0.0 0.0 0.00 0.51 0.00 78 1014.3
20260905072558 71 0 0.0 0.0 0.00 0.51 0.00 78 1014.4
20260905072058 71 0 0.0 0.0 0.00 0.51 0.00 78 1014.5
20260905071557 71 0 0.0 0.0 0.00 0.51 0.00 78 1014.4
20260905071054 71 0 0.0 2.0 0.00 0.51 0.00 77 1014.5
20260905070554 71 0 0.0 2.0 0.00 0.51 0.00 77 1014.5
20260905070053 71 0 1.0 2.0 0.00 0.51 0.00 77 1014.5
20260905065551 71 0 0.0 2.0 0.00 0.51 0.00 77 1014.6
20260905065050 71 0 0.0 3.0 0.00 0.51 0.00 78 1014.6
20260905064823 71 0 1.0 4.0 0.00 0.51 0.00 77 1014.6
20260905064047 71 0 1.0 4.0 0.00 0.51 0.00 77 1014.9
20260905063547 71 0 1.0 4.0 0.00 0.51 0.00 77 1014.9
20260905063048 71 0 1.0 2.0 0.00 0.51 0.00 78 1015.0
20260905062545 71 0 1.0 4.0 0.00 0.51 0.00 78 1015.1
20260905062045 71 0 1.0 4.0 0.00 0.51 0.00 78 1015.1
20260905061546 71 0 1.0 4.0 0.00 0.51 0.00 78 1015.1
20260905061040 71 0 2.0 5.0 0.00 0.51 0.00 78 1015.2
20260905060541 71 0 2.0 6.0 0.00 0.51 0.00 78 1015.2
20260905060040 71 0 3.0 8.0 0.00 0.52 0.00 78 1015.3
20260905055541 71 0 3.0 8.0 0.00 0.52 0.00 78 1015.4
20260905055041 71 0 2.0 5.0 0.00 0.52 0.00 78 1015.3
20260905054542 71 0 1.0 4.0 0.00 0.52 0.00 78 1015.6
20260905054037 71 0 1.0 4.0 0.00 0.52 0.00 78 1015.7
20260905053537 71 0 1.0 4.0 0.00 0.52 0.00 78 1015.7
20260905053040 71 0 1.0 4.0 0.00 0.52 0.00 78 1015.7
20260905052537 71 0 2.0 4.0 0.00 0.52 0.00 78 1015.6
20260905052036 71 0 2.0 5.0 0.00 0.52 0.00 78 1015.7
20260905051537 71 0 2.0 5.0 0.00 0.52 0.00 78 1015.7
20260905051033 71 0 2.0 4.0 0.00 0.52 0.00 78 1015.8
20260905050532 71 0 2.0 4.0 0.00 0.52 0.00 78 1015.9
20260905050033 71 0 2.0 4.0 0.00 0.52 0.00 78 1015.7
20260905045533 71 0 2.0 4.0 0.00 0.52 0.00 78 1015.9
20260905045033 71 0 2.0 5.0 0.00 0.52 0.00 78 1015.7
20260905044805 71 0 2.0 5.0 0.00 0.52 0.00 78 1015.8
20260905044032 71 0 2.0 5.0 0.00 0.52 0.00 78 1015.9
20260905043533 71 0 2.0 5.0 0.00 0.52 0.00 78 1015.9
20260905043032 71 0 2.0 5.0 0.00 0.52 0.00 78 1015.9
20260905042531 71 0 2.0 4.0 0.00 0.52 0.00 78 1015.9
20260905042306 71 0 1.0 4.0 0.00 0.52 0.00 78 1015.9
20260905041530 71 0 1.0 4.0 0.00 0.52 0.00 78 1015.9
20260905041027 71 0 1.0 4.0 0.00 0.52 0.00 78 1015.7
20260905040526 71 0 1.0 4.0 0.00 0.52 0.00 78 1015.8
20260905040257 71 0 2.0 4.0 0.00 0.52 0.00 78 1015.8
20260905035523 71 0 1.0 4.0 0.00 0.52 0.52 78 1015.7
20260905035253 71 0 1.0 3.0 0.00 0.52 0.52 78 1015.8
20260905034523 71 0 1.0 3.0 0.00 0.52 0.52 78 1015.9
20260905034026 71 0 0.0 3.0 0.00 0.52 0.52 78 1015.9
20260905034021 71 0 0.0 3.0 0.00 0.52 0.52 78 1015.8
20260905033250 71 0 1.0 3.0 0.00 0.52 0.52 78 1015.9
20260905032750 71 0 2.0 3.0 0.00 0.52 0.52 78 1015.9
20260905032249 71 0 2.0 4.0 0.00 0.52 0.52 78 1015.9
20260905031749 71 0 1.0 4.0 0.00 0.52 0.52 78 1015.9
20260905031020 71 0 2.0 4.0 0.00 0.52 0.52 78 1015.9
20260905030514 71 0 2.0 4.0 0.00 0.52 0.52 78 1016.0
20260905030014 71 0 1.0 4.0 0.00 0.52 0.52 78 1015.9
20260905025519 71 0 0.0 2.0 0.00 0.52 0.52 78 1015.7
20260905025515 71 0 0.0 0.0 0.00 0.52 0.52 78 1015.9
20260905024515 71 0 0.0 2.0 0.00 0.52 0.52 78 1015.8
20260905024015 72 0 0.0 0.0 0.00 0.52 0.52 78 1015.7
20260905023510 72 0 0.0 3.0 0.00 0.52 0.52 78 1015.7
20260905023011 72 0 1.0 3.0 0.00 0.52 0.52 78 1015.8
20260905022514 72 0 1.0 3.0 0.00 0.52 0.52 78 1015.8
20260905022011 72 0 1.0 3.0 0.00 0.52 0.52 78 1015.9
20260905021510 72 0 2.0 6.0 0.00 0.52 0.52 78 1015.9
20260905021012 72 0 3.0 6.0 0.00 0.52 0.52 78 1015.9
20260905020506 72 0 2.0 4.0 0.00 0.52 0.52 78 1015.7
20260905020237 72 0 1.0 4.0 0.00 0.52 0.52 78 1015.9
20260905015502 72 0 0.0 3.0 0.00 0.52 0.52 77 1016.0
20260905015002 72 171 0.0 2.0 0.00 0.52 0.52 77 1016.1
20260905014734 72 0 1.0 3.0 0.00 0.52 0.52 77 1015.9
20260905014002 72 0 1.0 3.0 0.00 0.55 0.52 77 1015.7
20260905013736 73 0 1.0 3.0 0.00 0.66 0.52 77 1015.6
20260905013003 73 0 2.0 4.0 0.00 0.76 0.52 77 1015.7
20260905012736 73 0 2.0 4.0 0.00 0.84 0.52 77 1015.7
20260905012000 73 171 2.0 4.0 0.00 0.98 0.52 77 1015.7
20260905011458 73 0 1.0 5.0 0.00 1.04 0.52 77 1015.7
20260905010958 73 180 1.0 5.0 0.00 1.04 0.52 77 1015.6
20260905010457 73 0 1.0 3.0 0.00 1.04 0.52 77 1015.6
20260905005959 73 0 2.0 5.0 0.00 1.04 0.52 77 1015.4
20260905005955 73 0 2.0 3.0 0.00 1.04 0.52 77 1015.5
20260905004948 73 0 2.0 5.0 0.00 1.04 0.52 77 1015.3
20260905004448 74 0 2.0 5.0 0.00 1.05 0.52 76 1015.4
20260905004217 74 0 2.0 4.0 0.00 1.05 0.52 76 1015.2
20260905003447 74 0 1.0 3.0 0.00 1.06 0.52 76 1015.2
20260905002945 74 0 1.0 4.0 0.00 1.12 0.52 76 1015.1
20260905002443 74 0 1.0 4.0 0.00 1.21 0.52 76 1015.1
20260905001941 74 0 1.0 3.0 0.00 1.21 0.52 76 1015.0